Location: Newark
(40.3500°N, 15.2333°E)
Time: 11:22:02
(UTC+00:00)

Vanguard 1 - Pass Details

Date: 26 January 2020
Orbit: 650 x 3833 km, 34.2° (Epoch: 22 February)

Event Time Altitude Azimuth Distance (km) Brightness Sun altitude
Rises 13:15:18 0° 205° (SSW) 3,755 14.5 24.2°
Reaches altitude 10° 13:20:43 10° 167° (SSE) 2,306 12.7 23.7°
Maximum altitude 13:21:42 11° 156° (SSE) 2,202 12.4 23.6°
Drops below altitude 10° 13:22:40 10° 144° (SE) 2,181 12.2 23.5°
Sets 13:26:59 0° 102° (ESE) 2,955 12.3 23.0°
